Wind_Speed
30 34 41 37 36 36 21 18 27 25 16 28 31 32 27 20 22 31 31 28 31 28 25 22 22 21 22 21 21 21 24 24 27 26 25 23 20 21 21 20 20 19 20 20
32 39 37 32 34 36 26 23 22 15 26 23 29 33 33 31 31 34 33 30 27 33 32 30 25 25 26 23 22 24 22 24 25 25 25 24 23 23 23 23 23 22 21 22
41 39 34 33 33 37 40 33 20 22 23 27 25 36 39 37 33 31 32 31 32 34 39 38 32 28 26 28 26 24 23 22 25 25 26 24 25 25 26 24 22 22 22 22
38 40 28 35 37 36 39 38 24 20 20 20 22 14 33 35 39 40 36 35 32 32 35 44 40 34 31 30 27 26 26 25 26 26 27 26 26 26 24 25 25 25 26 26
27 26 42 38 42 37 35 28 36 30 28 23 23 14 31 33 38 35 33 30 27 29 30 35 42 38 36 31 29 28 28 28 29 29 28 28 29 28 28 28 28 29 29 29
40 30 31 42 38 37 30 22 24 28 25 18 27 23 22 31 31 28 28 29 25 28 32 33 37 41 44 38 33 31 30 29 29 31 31 30 30 30 31 30 30 30 30 31
43 50 29 29 35 36 35 27 9 11 9 10 21 23 41 17 23 24 21 24 23 28 29 32 35 37 41 44 38 33 31 30 31 32 32 32 32 32 33 33 32 32 32 33
28 19 49 36 46 46 49 43 13 9 6 10 12 17 20 20 25 23 26 18 20 20 24 27 28 29 34 43 39 36 34 31 31 32 32 33 32 34 34 35 35 35 35 33
18 25 30 45 41 47 48 45 39 1 3 4 16 24 31 24 30 25 23 24 23 24 24 25 24 26 28 37 44 41 39 36 36 34 33 35 34 35 35 35 37 36 34 33
33 12 27 49 39 45 41 51 36 20 3 4 8 22 19 10 10 19 26 28 24 24 24 26 24 24 24 31 42 46 45 43 41 41 41 39 38 37 36 36 36 35 34 34
47 34 19 36 31 45 38 43 34 35 20 4 2 8 14 15 14 16 15 14 19 20 20 18 25 22 21 26 32 39 42 44 45 46 48 50 50 44 40 39 37 37 38 37
47 24 25 47 37 48 49 46 51 28 22 22 2 7 11 21 17 12 12 12 13 13 12 11 12 15 18 22 26 29 31 31 32 36 42 45 48 50 46 42 40 39 41 41
49 23 25 32 30 38 50 43 54 41 35 28 13 7 15 20 18 13 11 8 9 10 9 9 9 12 13 13 17 20 23 26 28 30 30 33 35 42 46 44 43 43 42 41
48 29 16 21 40 44 56 60 57 56 36 39 44 36 22 23 17 15 20 21 18 13 14 16 16 17 17 17 16 17 20 21 23 24 26 29 30 31 36 40 41 41 42 44
49 36 41 45 28 46 45 51 50 51 56 38 49 41 32 37 28 24 24 27 19 17 18 18 19 23 24 26 26 25 23 22 22 21 23 26 29 32 34 36 37 38 40 42
46 40 46 49 44 41 52 52 52 54 52 39 47 45 46 42 29 28 31 28 27 25 27 30 33 35 35 33 34 33 30 27 25 23 22 20 21 24 29 33 36 39 41 43
47 52 39 31 36 34 33 50 55 64 66 64 57 56 47 38 30 39 38 36 33 35 39 41 38 35 33 36 40 37 35 34 32 30 28 26 24 22 22 25 27 29 33 36
45 54 37 24 27 12 24 38 51 54 53 56 60 53 46 42 35 37 42 35 34 33 29 31 33 34 32 31 32 35 37 41 41 40 38 35 33 30 30 29 29 28 28 29
49 47 23 19 32 9 18 35 45 52 55 53 56 55 51 37 39 41 38 35 32 29 29 28 28 28 29 29 30 29 29 28 30 32 34 33 33 34 32 30 30 30 30 29
53 54 37 26 12 12 37 33 28 42 46 44 51 56 61 44 42 45 39 37 34 28 26 25 23 24 25 24 23 22 20 19 19 20 23 25 27 28 26 25 26 26 26 25
37 31 40 31 14 21 25 15 27 29 42 29 50 53 51 50 46 40 32 32 30 26 23 19 18 17 16 16 16 16 16 16 16 16 18 20 22 24 25 25 25 25 27 28
29 27 15 25 16 17 22 28 44 44 40 20 9 31 40 38 36 36 32 24 20 18 17 15 16 16 15 15 16 14 13 13 13 11 11 11 13 16 18 21 23 25 25 26
27 36 36 35 34 9 17 26 28 29 25 26 34 19 27 29 26 23 22 21 18 15 16 15 16 16 16 15 14 14 13 13 13 14 15 16 17 18 20 21 21 21 21 22
34 31 20 26 26 20 14 19 26 32 19 13 13 14 19 19 21 23 22 20 18 18 18 17 16 15 14 13 13 13 14 15 16 17 19 20 23 25 27 28 29 29 30 30
35 31 25 30 22 34 15 22 21 24 14 14 15 16 17 18 18 17 17 19 19 18 18 18 16 15 15 16 18 20 21 22 23 24 25 26 27 27 28 28 30 32 34 35
35 31 31 27 27 31 28 26 28 28 22 16 19 19 18 17 15 16 19 20 20 18 17 17 18 19 21 22 21 21 20 21 24 27 29 30 29 27 25 25 25 26 27 29
Wind_Direction
209 212 217 224 222 216 224 236 235 229 227 236 246 253 255 249 246 240 245 244 247 257 261 249 246 242 245 238 239 235 228 230 236 234 239 243 247 248 247 249 250 252 258 265
220 225 232 232 227 222 212 215 233 248 229 231 242 250 257 256 252 243 245 248 251 242 250 252 240 246 249 246 240 240 237 236 240 244 244 242 242 243 245 244 249 255 261 268
220 233 226 225 226 218 219 219 227 233 229 236 247 252 251 251 252 253 248 252 255 250 245 245 248 243 248 250 245 242 241 240 242 246 249 247 242 241 243 251 260 267 267 265
235 233 229 227 227 222 222 221 218 213 223 244 244 268 262 259 253 258 255 259 256 254 256 245 241 244 242 248 251 246 240 238 242 244 247 250 252 252 255 258 261 261 262 264
223 225 221 224 230 220 223 224 219 232 253 255 239 249 264 259 252 253 254 260 254 255 252 245 246 245 247 246 251 252 248 240 241 245 246 250 254 257 256 257 259 261 265 270
238 237 231 240 232 221 213 216 220 229 236 238 232 231 259 250 255 260 268 263 258 246 248 248 249 254 247 243 246 247 249 249 244 246 249 250 254 258 261 263 265 268 270 271
232 226 227 221 213 207 209 199 199 220 214 253 234 238 242 247 259 276 281 241 240 249 244 238 242 251 248 237 237 244 248 252 253 251 253 255 256 257 261 263 266 267 269 272
216 215 221 213 212 198 203 196 180 200 195 220 192 236 253 272 272 262 260 248 258 253 249 249 246 254 253 235 234 239 245 248 253 256 257 257 259 260 262 265 267 270 273 275
221 216 229 212 206 208 197 201 201 147 239 194 217 251 255 250 260 248 257 260 251 241 240 244 248 252 247 235 232 236 240 244 248 252 256 257 258 261 265 268 268 270 272 273
226 246 214 207 203 204 210 209 200 220 176 240 244 235 237 238 249 233 237 243 230 234 244 246 252 249 246 238 234 237 242 246 252 258 258 259 261 261 263 263 265 267 269 270
219 229 219 202 198 195 196 199 204 215 224 189 218 244 240 218 212 225 230 222 230 237 244 250 246 248 253 247 241 244 249 252 255 258 260 261 260 260 261 263 264 264 266 268
212 216 217 205 207 204 203 200 195 191 204 226 265 246 189 188 218 207 207 215 226 238 240 244 243 242 244 244 246 248 252 254 259 263 264 265 260 255 256 261 266 270 272 272
212 224 192 208 206 199 207 207 208 209 217 217 204 208 182 194 187 187 196 233 248 245 230 231 244 252 245 242 245 249 252 256 264 271 274 267 267 262 260 265 270 273 277 279
209 227 211 215 214 198 202 207 210 204 204 218 224 227 215 200 231 234 252 260 260 238 241 236 252 253 250 252 254 256 259 262 266 268 268 268 268 265 261 265 272 274 274 275
227 234 231 230 246 215 206 206 205 202 215 206 224 224 225 224 223 245 251 249 231 236 240 246 253 262 263 265 266 267 264 265 267 267 265 263 262 262 261 263 265 267 268 268
222 231 229 225 233 224 208 205 204 210 219 230 237 242 244 231 224 234 232 232 246 251 257 262 265 262 261 261 264 265 264 266 269 269 269 274 279 277 271 269 270 271 271 270
216 214 196 211 216 211 201 210 215 222 223 230 230 239 237 241 229 227 230 231 236 252 261 265 268 269 267 264 261 260 261 263 264 265 266 268 269 274 280 279 280 282 279 276
261 205 201 195 179 202 224 225 228 227 225 231 238 240 244 239 240 234 237 243 246 246 252 258 264 269 273 273 271 268 267 262 265 270 268 270 273 278 281 282 282 284 285 282
217 191 184 189 191 221 216 212 210 216 232 232 236 240 237 237 230 234 237 246 255 255 258 257 261 266 269 273 277 280 280 279 273 270 270 272 276 280 279 277 276 276 276 278
196 210 196 174 177 202 239 219 218 218 240 237 229 231 233 225 228 242 244 252 255 253 255 257 261 266 269 274 278 282 284 286 285 277 271 270 268 271 277 282 286 288 288 287
180 196 197 184 194 229 224 211 190 182 248 252 238 237 238 238 242 247 245 241 248 248 247 252 260 264 266 267 269 275 283 288 293 289 280 278 279 284 289 290 289 287 287 289
180 175 180 182 203 238 219 203 205 229 235 244 270 237 234 236 235 236 235 235 229 227 224 240 247 249 250 255 259 266 276 280 279 281 284 284 285 286 289 291 291 289 290 289
196 201 198 206 214 197 213 222 221 231 241 249 249 230 206 216 216 213 217 207 208 219 233 232 229 235 244 251 260 264 268 271 275 277 279 280 282 282 283 283 284 287 290 293
200 204 207 208 207 209 187 197 203 216 240 225 207 194 200 201 192 192 198 205 213 222 225 219 215 224 236 249 259 267 272 276 280 283 284 285 286 285 282 280 280 278 276 277
201 195 203 208 206 200 192 200 208 211 193 189 192 187 188 193 198 206 213 210 212 212 206 209 220 234 247 258 266 270 274 279 282 285 287 286 286 286 285 284 283 284 284 283
204 192 197 197 192 195 202 213 202 207 208 207 214 216 216 217 210 204 197 195 198 203 214 229 242 255 264 269 275 276 279 281 286 286 286 285 286 284 281 282 285 287 289 290
Height
3114 3116 3114 3122 3128 3134 3138 3142 3144 3146 3150 3152 3151 3150 3153 3158 3159 3160 3160 3162 3164 3163 3166 3169 3171 3172 3172 3173 3175 3177 3178 3181 3182 3184 3186 3189 3192 3194 3195 3197 3198 3198 3199 3200
3111 3105 3114 3124 3127 3130 3135 3137 3139 3142 3145 3146 3148 3144 3146 3149 3151 3154 3155 3156 3157 3159 3158 3160 3164 3166 3167 3169 3172 3173 3175 3177 3179 3181 3183 3184 3186 3188 3190 3191 3192 3194 3196 3196
3100 3102 3112 3117 3121 3125 3128 3131 3136 3141 3141 3143 3143 3138 3138 3141 3143 3145 3146 3148 3149 3151 3153 3154 3156 3160 3163 3163 3167 3170 3172 3173 3175 3176 3179 3180 3181 3182 3183 3186 3188 3190 3191 3192
3096 3103 3106 3112 3115 3121 3122 3128 3135 3136 3139 3137 3139 3129 3128 3132 3135 3136 3138 3140 3141 3143 3146 3147 3149 3152 3155 3158 3162 3165 3167 3168 3170 3172 3173 3175 3177 3178 3181 3182 3183 3184 3185 3186
3088 3091 3099 3104 3104 3117 3119 3127 3132 3134 3134 3133 3132 3131 3117 3125 3125 3127 3131 3133 3133 3135 3137 3138 3140 3144 3149 3152 3155 3159 3161 3163 3164 3166 3168 3169 3170 3173 3175 3176 3177 3178 3178 3180
3085 3091 3094 3096 3107 3114 3119 3126 3128 3131 3131 3126 3123 3126 3111 3115 3118 3122 3125 3125 3126 3127 3129 3131 3134 3136 3138 3144 3148 3150 3154 3157 3159 3160 3162 3164 3165 3167 3169 3170 3172 3173 3174 3174
3077 3081 3088 3094 3101 3109 3114 3120 3124 3127 3123 3113 3117 3119 3104 3109 3113 3116 3116 3116 3118 3119 3120 3123 3125 3126 3128 3133 3139 3143 3146 3150 3152 3154 3155 3157 3159 3160 3162 3163 3164 3165 3166 3167
3070 3075 3077 3081 3085 3086 3095 3104 3108 3111 3109 3106 3113 3099 3093 3101 3108 3110 3109 3111 3112 3113 3113 3116 3118 3119 3119 3125 3131 3136 3138 3142 3143 3146 3149 3150 3152 3152 3154 3155 3156 3157 3159 3160
3062 3064 3066 3076 3081 3087 3090 3095 3101 3104 3103 3103 3099 3092 3094 3096 3100 3103 3104 3104 3106 3107 3108 3109 3111 3112 3112 3115 3121 3126 3130 3133 3134 3136 3139 3141 3143 3144 3145 3147 3147 3148 3150 3152
3061 3064 3062 3067 3078 3082 3080 3087 3097 3100 3104 3104 3090 3088 3085 3087 3090 3094 3095 3097 3099 3101 3104 3104 3105 3106 3108 3109 3113 3117 3121 3125 3128 3129 3131 3132 3134 3136 3137 3137 3137 3140 3141 3142
3056 3063 3060 3063 3058 3061 3073 3078 3084 3091 3092 3090 3091 3079 3081 3084 3086 3088 3091 3092 3095 3096 3098 3099 3100 3102 3103 3104 3107 3111 3114 3117 3118 3120 3121 3122 3124 3126 3128 3128 3129 3130 3129 3132
3050 3047 3051 3054 3056 3058 3063 3065 3069 3077 3084 3085 3083 3078 3078 3079 3082 3084 3085 3088 3090 3091 3093 3095 3096 3097 3099 3100 3101 3104 3106 3108 3109 3110 3110 3110 3112 3114 3116 3119 3121 3122 3121 3121
3040 3041 3041 3051 3049 3051 3057 3061 3064 3069 3075 3076 3082 3076 3076 3078 3081 3082 3083 3084 3087 3089 3090 3091 3092 3093 3094 3095 3097 3098 3098 3100 3101 3101 3100 3100 3102 3104 3107 3110 3113 3113 3113 3113
3031 3027 3028 3033 3035 3036 3039 3043 3049 3056 3061 3066 3065 3071 3074 3076 3078 3079 3080 3080 3083 3084 3085 3086 3088 3090 3091 3091 3091 3093 3093 3093 3094 3093 3093 3093 3094 3094 3096 3098 3100 3101 3101 3101
3022 3016 3027 3031 3036 3035 3035 3041 3045 3051 3049 3055 3053 3059 3066 3073 3074 3075 3077 3077 3078 3079 3080 3081 3082 3083 3084 3085 3085 3086 3087 3087 3087 3086 3085 3085 3085 3085 3086 3087 3087 3087 3088 3088
3014 3013 3019 3024 3030 3029 3029 3037 3041 3044 3048 3052 3050 3052 3057 3065 3066 3068 3069 3072 3072 3073 3073 3073 3074 3075 3076 3077 3078 3079 3080 3080 3081 3080 3079 3078 3078 3077 3077 3077 3078 3077 3076 3076
3008 3009 3008 3016 3022 3024 3023 3019 3023 3028 3035 3036 3038 3036 3049 3054 3055 3058 3061 3064 3067 3068 3067 3065 3064 3065 3067 3067 3068 3070 3072 3072 3073 3073 3073 3072 3072 3071 3071 3071 3070 3069 3067 3066
2993 2996 3006 3007 3015 3011 3003 3010 3015 3020 3023 3026 3027 3033 3039 3045 3048 3049 3053 3057 3058 3060 3060 3058 3057 3057 3057 3058 3059 3060 3061 3062 3063 3064 3065 3065 3065 3065 3065 3063 3062 3061 3060 3058
2981 2983 2988 2997 2999 3003 3000 3000 3003 3008 3006 3015 3019 3025 3030 3035 3037 3039 3044 3046 3049 3052 3051 3051 3053 3053 3052 3052 3051 3051 3051 3052 3053 3054 3055 3055 3056 3056 3056 3055 3054 3053 3051 3050
2970 2979 2983 2987 2991 2992 2984 2994 3005 3013 3005 3005 3006 3012 3018 3024 3025 3027 3033 3038 3041 3043 3044 3046 3046 3046 3045 3045 3045 3045 3045 3044 3045 3045 3046 3047 3047 3048 3047 3046 3046 3045 3044 3043
2957 2967 2971 2976 2982 2983 2983 2989 2999 3008 2987 2994 2997 3002 3009 3013 3014 3023 3028 3031 3033 3035 3038 3040 3041 3041 3040 3040 3040 3041 3041 3040 3040 3040 3039 3040 3040 3040 3040 3039 3038 3038 3037 3036
2951 2960 2963 2970 2978 2974 2976 2984 2982 2981 2986 2991 2989 2993 2999 3003 3008 3013 3019 3023 3026 3029 3032 3034 3035 3036 3036 3036 3036 3036 3037 3035 3035 3035 3034 3034 3033 3032 3032 3031 3031 3030 3028 3027
2950 2952 2956 2964 2963 2968 2972 2978 2980 2982 2984 2985 2987 2989 2991 2997 3001 3007 3012 3017 3020 3023 3026 3027 3029 3030 3030 3031 3032 3032 3032 3031 3031 3030 3029 3029 3028 3027 3026 3024 3023 3022 3020 3019
2945 2949 2954 2958 2962 2968 2972 2975 2976 2979 2981 2982 2982 2985 2989 2995 2999 3004 3007 3012 3015 3018 3019 3021 3024 3026 3027 3028 3028 3028 3028 3027 3026 3026 3025 3024 3022 3020 3018 3016 3015 3014 3012 3011
2940 2944 2949 2954 2958 2965 2968 2971 2973 2977 2979 2982 2983 2986 2990 2993 2997 3000 3004 3007 3010 3013 3016 3019 3021 3023 3024 3024 3024 3024 3023 3020 3019 3017 3017 3016 3014 3012 3010 3008 3006 3005 3004 3003
2936 2939 2944 2948 2953 2958 2961 2964 2968 2973 2977 2980 2984 2987 2989 2992 2995 2997 3000 3005 3008 3010 3013 3015 3016 3017 3017 3018 3017 3016 3014 3013 3011 3011 3009 3007 3004 3003 3000 2998 2997 2997 2996 2994